Location: Newark
(54.1833°N, 11.0667°E)
Time: 01:05:59
(UTC+00:00)

Envisat - Visible Passes

Search period start: 18 January 2020 00:00
Search period end: 28 January 2020 00:00
Orbit: 764 x 766 km, 98.1° (Epoch: 17 January)

Date Brightness Start Highest point End Pass type
(mag) Time Alt. Az. Time Alt. Az. Time Alt. Az.
18 Jan 4.5 05:31:00 10° NNE 05:35:46 39° E 05:40:30 10° SSE visible
18 Jan 3.0 16:52:07 10° SSE 16:57:12 87° WSW 17:02:20 10° NNW visible
18 Jan 5.9 18:33:54 10° WSW 18:37:01 16° W 18:40:09 10° NW visible
19 Jan 5.6 04:54:48 10° NE 04:58:38 21° E 05:02:26 10° SE visible
19 Jan 3.0 06:33:07 10° NNE 06:38:13 74° WNW 06:43:17 10° SSW visible
19 Jan 3.2 16:15:35 10° SE 16:20:30 52° ENE 16:25:26 10° N visible
19 Jan 5.0 17:55:21 10° SSW 17:59:47 30° W 18:04:15 10° NNW visible
20 Jan 6.3 04:20:01 10° ENE 04:21:17 11° E 04:22:31 10° E visible
20 Jan 3.6 05:56:20 10° NNE 06:01:24 61° ESE 06:06:25 10° S visible
20 Jan 3.7 17:17:46 10° S 17:22:45 56° W 17:27:47 10° NNW visible
21 Jan 4.9 05:19:49 10° NNE 05:24:24 32° E 05:28:56 10° SSE visible
21 Jan 2.9 16:40:50 10° SSE 16:45:55 79° ENE 16:51:01 10° NNW visible
21 Jan 5.7 18:21:56 10° SW 18:25:34 19° W 18:29:13 10° NW visible
22 Jan 5.9 04:43:49 10° NE 04:47:11 17° E 04:50:32 10° SE visible
22 Jan 3.0 06:21:48 10° NNE 06:26:56 87° WNW 06:32:01 10° SSW visible
22 Jan 4.7 17:43:44 10° SSW 17:48:24 36° W 17:53:06 10° NNW visible
23 Jan 4.0 05:45:05 10° NNE 05:50:03 50° E 05:54:59 10° S visible
23 Jan 3.4 17:06:22 10° S 17:11:26 68° WSW 17:16:31 10° NNW visible
23 Jan 6.2 18:49:25 10° WSW 18:51:27 12° W 18:53:30 10° WNW visible
24 Jan 5.3 05:08:41 10° NE 05:13:00 27° E 05:17:17 10° SSE visible
24 Jan 3.0 16:29:36 10° SSE 16:34:39 66° ENE 16:39:42 10° N visible
24 Jan 5.4 18:10:06 10° SW 18:14:08 23° W 18:18:12 10° NW visible
25 Jan 6.1 04:32:59 10° NE 04:35:44 14° E 04:38:28 10° ESE visible
25 Jan 3.2 06:10:30 10° NNE 06:15:38 78° ESE 06:20:43 10° SSW visible
25 Jan 4.3 17:32:12 10° S 17:37:02 43° W 17:41:54 10° NNW visible
26 Jan 4.4 05:33:52 10° NNE 05:38:42 41° E 05:43:30 10° SSE visible
26 Jan 3.1 16:55:01 10° SSE 17:00:06 81° WSW 17:05:15 10° NNW visible
26 Jan 6.1 18:37:06 10° WSW 18:39:59 15° W 18:42:52 10° NW visible
27 Jan 5.6 04:57:36 10° NE 05:01:35 22° E 05:05:32 10° SE visible
27 Jan 3.1 16:18:26 10° SE 16:23:23 55° ENE 16:28:22 10° N visible
27 Jan 5.1 17:58:24 10° SSW 18:02:43 28° W 18:07:06 10° NNW visible
